Zurück zum Katalog

STARLINK-36411

AktivKommunikationSSO
NORAD 67608·PAYLOAD·🇺🇸 United States

Gestartet Jan 29, 2026 von Vandenberg Space Force Base

Loading…

Nächste Überflüge (nächste 24 Stunden)

TLE

AktuellSource: CelesTrak SupGP

Epoche: Sep 14, 2026, 20:56 UTC

1 67608C 26018V   26257.87270833 -.00031362  00000+0 -97359-3 0  2573
2 67608  97.2852 321.3420 0000575 103.8779 245.0512 15.33454919    13

Verfolge STARLINK-36411 in Echtzeit mit AllMySat

Download on the App Store